Overview Statistics Trail Chart Weather Telemetry Raw packets
 

This is the latest recevied weather packets stored in our database for station/object OK1FET-5. If no packets are shown the sender has not sent any weather packets the latest 10 day(s).

<< 33 34 35 36 37 38 39 >>
Time Temp. Humidity Pressure Rain* Wind** Luminosity Snow
1788052276 16.67° C 80% 1017.1 hPa - - - -
1788051681 17.22° C 81% 1017.1 hPa - - - -
1788051085 16.67° C 81% 1017 hPa - - - -
1788050489 16.67° C 84% 1017.1 hPa - - - -
1788049893 17.22° C 79% 1017.1 hPa - - - -
1788049298 17.22° C 81% 1017.1 hPa - - - -
1788048702 17.22° C 84% 1017.3 hPa - - - -
1788048106 17.22° C 83% 1017.2 hPa - - - -
1788047510 17.22° C 81% 1017.3 hPa - - - -
1788046915 17.22° C 81% 1017.3 hPa - - - -
1788046319 17.22° C 85% 1017.3 hPa - - - -
1788045723 16.67° C 81% 1017.3 hPa - - - -
1788045127 16.67° C 81% 1017.3 hPa - - - -
1788044531 16.67° C 83% 1017.2 hPa - - - -
1788043936 16.67° C 83% 1017.1 hPa - - - -
1788043342 16.67° C 71% 1017.1 hPa - - - -
1788042744 16.67° C 71% 1017.1 hPa - - - -
1788042148 17.22° C 79% 1017 hPa - - - -
1788041553 17.78° C 69% 1017 hPa - - - -
1788040361 18.33° C 71% 1017.1 hPa - - - -
1788039765 18.33° C 69% 1017.1 hPa - - - -
1788039170 18.33° C 68% 1017.1 hPa - - - -
1788038574 18.33° C 66% 1017.1 hPa - - - -
1788037978 18.89° C 67% 1017.1 hPa - - - -
1788037382 18.89° C 68% 1017.1 hPa - - - -

* Rain since midnight (hover to see other rain measurements)
** Current wind speed in m/s (hover to see current wind gust speed)